Regional Weather Roundup
Issued by NWS Newport/Morehead, NC

Current Version | Previous Version | Graphics & Text | Print | Product List | Glossary Off
Versions: 1 2 3 4 5 6 7 8 9 10 11 12 13 14 15 16 17 18 19 20 21 22 23 24 25 26 27 28 29 30 31 32 33 34 35 36 37 38 39 40 41 42 43 44 45 46 47 48 49 50

000
ASUS42 KMHX 210710
RWRMHX
WEATHER ROUNDUP FOR EASTERN NORTH CAROLINA
NATIONAL WEATHER SERVICE NEWPORT/MOREHEAD CITY NC
300 AM EDT SUN SEP 21 2014

NOTE: "FAIR" INDICATES FEW OR NO CLOUDS BELOW 12,000 FEET
WITH NO SIGNIFICANT WEATHER AND/OR OBSTRUCTIONS TO VISIBILITY

NCZ015>017-031-032-045>047-102-103-210800-
NORTH COAST

CITY           SKY/WX    TMP DP  RH WIND       PRES   REMARKS
EDENTON        LGT RAIN  69  68  97 N8        29.87F
ELIZABETH CITY LGT RAIN  71  69  93 N13       29.87F
KITTY HAWK     LGT RAIN  72  70  95 E5        29.85F
MANTEO         DRIZZLE   71  70  96 E7        29.85F

$$

NCZ045>047-081-094-103-104-210800-
CENTRAL COAST

CITY           SKY/WX    TMP DP  RH WIND       PRES   REMARKS
FRISCO         RAIN      71  71 100 NE5       29.79F FOG
SWANQUARTER      N/A     72 N/A N/A NE8G14    29.77F

$$

NCZ095-097-098-100-101-210800-
SOUTHERN COAST

CITY           SKY/WX    TMP DP  RH WIND       PRES   REMARKS
BEAUFORT       HVY RAIN  73  71  93 N13       29.75F FOG
CEDAR ISLAND     N/A     72 N/A N/A N18G25    29.82F
JACKSONVILLE   LGT RAIN  71  69  93 N14       29.79F
NEWPORT        NOT AVBL
PINEY ISLAND   HVY RAIN  75  72  90 N18G26    29.77F FOG
WILMINGTON     LGT RAIN  69  68  96 N13       29.80F


$$

NCZ011>013-027>030-043-044-078>080-089-090>093-098-210800-
COASTAL PLAIN

CITY           SKY/WX    TMP DP  RH WIND       PRES   REMARKS
AHOSKIE        CLOUDY    67  65  96 N7        29.91F
CLINTON        LGT RAIN  69  68  96 N5        29.88F
ELIZABETHTOWN  DRIZZLE   68  67  95 NW3       29.87F
GOLDSBORO      CLOUDY    69  68  98 VRB2G18   29.86F
GREENVILLE     LGT RAIN  68  68 100 N8        29.89F
HAVELOCK       HVY RAIN  72  70  93 N15       29.79F FOG
KENANSVILLE    LGT RAIN  68  67  94 N10       29.86F
KINSTON        LGT RAIN  69  68  98 N13       29.86F
NEW BERN       RAIN      73  69  87 N10       29.82F
RICHLANDS      CLOUDY    70  66  88 N8G18     29.82F
ROANOKE RAPIDS NOT AVBL
ROCKY MOUNT    CLOUDY    68  65  90 N8        29.91F
WASHINGTON     CLOUDY    69  68  97 N8        29.85F
WHITEVILLE     RAIN      68  66  92 N3        29.85F

$$

AMZ130-135-150-152-154-156-158-170-250-252-270-ANZ085-086-088-633-658-670-210800-
MARINE OBSERVATIONS

STATION/POSITION TIME  TEMP    WIND        PRES    WAVE   SWELL
                       AIR SEA DIR/SP/G            HT/PER HT/PER
                 (UTC) (F)     (DEG/KT/KT) (MB)    (FT/S) (FT/S)
CHESAPEAKE LIGHT 0600   74     100/  5/  6 1014.4
BUOY 44014       0700   75 77  120/ 14/ 16 1011.4    7/ 9   5/ 9
DUCK             0700   74 74   40/ 13/ 14 1010.4
2E DUCK          0700                        N/A     5/ 9   2/11
OREGON INLET     0700   71 73   80/  9/ 13 1010.6
BUOY 44095       0700      74                N/A     8/ 9   2/11
20E OREGON INLET NOT AVBL
HATTERAS CG      0700   72 75   50/  6/ 10 1009.2
DIAMOND BUOY     0700   76     110/ 21/ 25 1007.6   10/ 9   7/ 9
CAPE LOOKOUT     0600   73      30/ 18/ 20 1008.1
BEAUFORT LAB     0700   72 74   20/ 11/ 16 1007.0
30 SE NEW RIVER  0700   76 83   10/ 25/ 29 1005.8    8/ 7   3/ 9
5 SE WRIGHTSVILL 0600   70 79  360/ 19/ 23   N/A
BUOY 41002       0624   78 82  200/ 21/ 27 1009.0    9/ 7   3/10
BUOY 41004       0700   75 81  340/ 19/ 23 1009.4    7/ 8

$$


USA.gov is the U.S. government's official web portal to all federal, state and local government web resources and services.